sat.trackr.live / text

‹ back to catalog

STARLINK-32200

NORAD 60258 · 2024-131D

PAYLOAD ACTIVE UNKNOWN

§ Identity

Operator
Country
US
Launch date
2024-07-27
Launch site
AFETR
Launch vehicle
Mass (kg)
RCS (m²)

Purposes: comms

External: N2YO · Heavens-Above · Gunter

§ Orbital elements

Epoch: 2026-05-25T03:55:07.321152Z

Period
94.11 min
Inclination
53.1606°
Eccentricity
0.0001283
Mean motion
15.30194676 rev/d
Perigee alt
474.4 km
Apogee alt
476.1 km
Semi-major
6,853.4 km
B*
4.7366e-5
RAAN
57.4613°
Arg perigee
82.8850°
Mean anomaly
277.2297°
Rev number
10,342

§ Raw data

STARLINK-322001 60258U 24131D   26145.16327918  .00001044  00000+0  47366-4 0  99952 60258  53.1606  57.4613 0001283  82.8850 277.2297 15.30194676103423

JSON: /api/v1/satellites/60258 · /tle

For live sub-satellite position, see the globe view (requires WebGL).

§ Visibility from observer

Set your observer location to see the next 7 days of passes ≥ 10°. The values pass through the URL so the page stays shareable.

No JS? Fill the form by hand. The geolocation button needs JavaScript.